This is the latest recevied weather packets stored in our database for station/object W0WC. If no packets are shown the sender has not sent any weather packets the latest 1 day(s).
| Time | Temp. | Humidity | Pressure | Rain* | Wind** | Luminosity | Snow |
|---|---|---|---|---|---|---|---|
| 1778037336 | 8.33° C | 85% | 1013 hPa | 0 mm | 1.34 m/s, 328° | 0 W/m² | - |
| 1778037032 | 8.33° C | 86% | 1012.9 hPa | 0 mm | 1.79 m/s, 5° | 0 W/m² | - |
| 1778036731 | 8.33° C | 87% | 1013 hPa | 0 mm | 1.79 m/s, 359° | 0 W/m² | - |
| 1778036428 | 8.33° C | 88% | 1012.9 hPa | 0 mm | 1.34 m/s, 5° | 0 W/m² | - |
| 1778036125 | 8.33° C | 88% | 1012.9 hPa | 0 mm | 3.13 m/s, 31° | 0 W/m² | - |
| 1778035821 | 8.33° C | 88% | 1012.8 hPa | 0 mm | 1.34 m/s, 32° | 0 W/m² | - |
| 1778035518 | 8.33° C | 87% | 1013 hPa | 0 mm | 1.79 m/s, 36° | 0 W/m² | - |
| 1778035214 | 8.33° C | 87% | 1013 hPa | 0 mm | 2.68 m/s, 350° | 0 W/m² | - |
| 1778034910 | 8.33° C | 87% | 1012.8 hPa | 0 mm | 2.68 m/s, 5° | 0 W/m² | - |
| 1778034608 | 8.33° C | 87% | 1013 hPa | 0 mm | 1.79 m/s, 12° | 0 W/m² | - |
| 1778034305 | 8.33° C | 88% | 1012.7 hPa | 0 mm | 3.13 m/s, 16° | 0 W/m² | - |
| 1778034002 | 8.33° C | 88% | 1012.5 hPa | 0 mm | 0.89 m/s, 347° | 0 W/m² | - |
| 1778033700 | 8.33° C | 88% | 1012.4 hPa | 0 mm | 1.79 m/s, 26° | 0 W/m² | - |
| 1778033397 | 8.33° C | 88% | 1012.4 hPa | 0 mm | 1.79 m/s, 36° | 0 W/m² | - |
| 1778033094 | 8.33° C | 88% | 1012.2 hPa | 0 mm | 2.68 m/s, 22° | 0 W/m² | - |
| 1778032791 | 8.33° C | 88% | 1012.1 hPa | 0 mm | 2.24 m/s, 6° | 0 W/m² | - |
| 1778032489 | 8.33° C | 88% | 1012.1 hPa | 0 mm | 0.89 m/s, 20° | 0 W/m² | - |
| 1778032186 | 8.33° C | 89% | 1012.1 hPa | 0 mm | 2.24 m/s, 12° | 0 W/m² | - |
| 1778031883 | 8.33° C | 90% | 1012 hPa | 0 mm | 4.02 m/s, 18° | 0 W/m² | - |
| 1778031579 | 8.33° C | 90% | 1011.9 hPa | 0 mm | 0.89 m/s, 283° | 0 W/m² | - |
| 1778031277 | 8.33° C | 90% | 1012 hPa | 0 mm | 1.34 m/s, 19° | 0 W/m² | - |
| 1778030973 | 8.33° C | 90% | 1012 hPa | 0 mm | 0.89 m/s, 28° | 0 W/m² | - |
| 1778030670 | 8.33° C | 90% | 1011.8 hPa | 0 mm | 0.89 m/s, 5° | 0 W/m² | - |
| 1778030367 | 8.33° C | 90% | 1011.8 hPa | 0 mm | 0.89 m/s, 13° | 0 W/m² | - |
| 1778030064 | 8.33° C | 89% | 1011.6 hPa | 0 mm | 1.79 m/s, 25° | 1 W/m² | - |
* Rain latest hour (hover to see other rain measurements)
** Current wind speed in m/s (hover to see current wind gust speed)